sat.trackr.live / text

‹ back to catalog

STARLINK-35258

NORAD 65861 · 2025-223H

PAYLOAD ACTIVE UNKNOWN

§ Identity

Operator
Country
US
Launch date
2025-10-03
Launch site
AFWTR
Launch vehicle
Mass (kg)
RCS (m²)

Purposes: comms

External: N2YO · Heavens-Above · Gunter

§ Orbital elements

Epoch: 2026-05-25T03:08:45.489120Z

Period
93.85 min
Inclination
53.1603°
Eccentricity
0.0001475
Mean motion
15.34398996 rev/d
Perigee alt
461.7 km
Apogee alt
463.7 km
Semi-major
6,840.8 km
B*
6.5002e-4
RAAN
298.7940°
Arg perigee
79.2006°
Mean anomaly
280.9163°
Rev number
3,591

§ Raw data

STARLINK-352581 65861U 25223H   26145.13108205  .00021649  00000+0  65002-3 0  99952 65861  53.1603 298.7940 0001475  79.2006 280.9163 15.34398996 35910

JSON: /api/v1/satellites/65861 · /tle

For live sub-satellite position, see the globe view (requires WebGL).

§ Visibility from observer

Set your observer location to see the next 7 days of passes ≥ 10°. The values pass through the URL so the page stays shareable.

No JS? Fill the form by hand. The geolocation button needs JavaScript.